Le nostre stazioni meteo in Italia

Pubblicità
Il mio iltempo24.it
Lulea/Kallax, Svezia (2186): Temperatura & dewpoint: 01.04.2020 23:00:00 - 07.04.2020 23:00:00 (CEST)Lulea/Kallax, Svezia (2186): velocità del vento & gusts: 01.04.2020 23:00:00 - 07.04.2020 23:00:00 (CEST)Lulea/Kallax, Svezia (2186): direzione del vento: 01.04.2020 23:00:00 - 07.04.2020 23:00:00 (CEST)Lulea/Kallax, Svezia (2186): reduced air pressure: 01.04.2020 23:00:00 - 07.04.2020 23:00:00 (CEST)Lulea/Kallax, Svezia (2186): visibility: 01.04.2020 23:00:00 - 07.04.2020 23:00:00 (CEST)Lulea/Kallax, Svezia (2186): precipitazioni: 01.04.2020 23:00:00 - 07.04.2020 23:00:00 (CEST)
Data & Tempo tt [°C] td [°C] ff [km/h] ff [kn] fx [km/h] fx [kn] dd ppp [hPa] vv [km] rr [mm]
07.04.2020 23:00:00 3,7 -3,1 5 3 29 16 OSO 1015,4 10 0,0
07.04.2020 22:00:00 5,2 -2,4 16 9 25 14 ONO 1015,3 10 0,0
07.04.2020 21:00:00 5,9 -1,7 16 9 25 14 O 1015,1 10 0,0
07.04.2020 20:00:00 7,1 -1,8 15 8 29 16 ONO 1014,5 10 0,0
07.04.2020 19:00:00 8,5 -2,2 21 11 40 21 ONO 1013,5 10 0,0
07.04.2020 18:00:00 7,2 -0,8 21 11 40 21 NO 1012,4 10 0,0
07.04.2020 17:00:00 9,7 -0,2 24 13 32 18 ONO 1011,5 10 0,0
07.04.2020 16:00:00 6,0 0,7 5 3 14 8 SSE 1011,0 10 0,0
07.04.2020 15:00:00 3,1 0,2 8 4 14 8 ESE 1010,5 10 0,0
07.04.2020 14:00:00 2,8 0,4 5 3 11 6 ESE 1010,3 10 0,0
07.04.2020 13:00:00 2,8 0,2 4 2 14 8 - 1010,0 10 0,0
07.04.2020 12:00:00 1,3 -0,5 11 6 18 10 NO 1009,8 10 0,0
07.04.2020 11:00:00 0,5 -0,6 13 7 18 10 NO 1009,6 10 0,0
07.04.2020 10:00:00 -0,6 -0,9 15 8 22 12 ONO 1009,5 10 0,0
07.04.2020 09:00:00 -1,1 -1,4 15 8 22 12 NO 1009,5 3,0 0,0
07.04.2020 08:00:00 -0,8 -1,1 13 7 22 12 NO 1009,4 0,7 0,0
07.04.2020 07:00:00 -0,6 -0,9 5 3 11 6 O 1009,7 0,4 0,0
07.04.2020 06:00:00 -0,5 -0,8 5 3 7 4 OSO 1010,1 0,3 0,0
07.04.2020 05:00:00 -0,4 -0,7 8 4 11 6 OSO 1010,7 0,2 0,0
07.04.2020 04:00:00 -0,4 -0,8 5 3 11 6 SSO 1011,5 8 0,0
07.04.2020 03:00:00 -1,4 -1,8 5 3 11 6 SE 1012,1 9 0,0
07.04.2020 02:00:00 -0,7 -1,3 4 2 18 10 - 1013,4 10 0,0
07.04.2020 01:00:00 0,3 -0,4 11 6 22 12 S 1014,2 10 0,0
07.04.2020 00:00:00 1,0 0,1 13 7 22 12 S 1015,3 10 0,0
06.04.2020 23:00:00 1,3 0,1 15 8 32 18 S 1016,3 10 0,0
06.04.2020 22:00:00 1,9 -0,7 24 13 32 18 S 1016,8 10 0,0
06.04.2020 21:00:00 1,3 -1,3 26 14 32 18 SSE 1017,6 10 0,0
06.04.2020 20:00:00 1,0 -1,1 18 10 29 16 SSE 1019,0 10 0,0
06.04.2020 19:00:00 0,8 -1,0 18 10 25 14 SE 1019,9 10 0,0
06.04.2020 18:00:00 0,9 -1,2 18 10 25 14 SSE 1021,1 10 0,0
06.04.2020 17:00:00 1,3 -1,3 18 10 25 14 SSE 1021,7 10 0,0
06.04.2020 16:00:00 1,2 -1,3 21 11 29 16 SSE 1022,7 10 0,0
06.04.2020 15:00:00 0,7 -1,7 21 11 29 16 SSE 1023,5 10 0,0
06.04.2020 14:00:00 0,4 -2,5 21 11 25 14 SSE 1024,1 10 0,0
06.04.2020 13:00:00 0,1 -2,9 21 11 25 14 SSE 1024,6 10 0,0
06.04.2020 12:00:00 0,3 -3,1 18 10 25 14 SSE 1024,7 10 0,0
06.04.2020 11:00:00 0,3 -3,4 16 9 25 14 SSE 1024,8 10 0,0
06.04.2020 10:00:00 0,4 -4,4 16 9 25 14 SSE 1024,9 10 0,0
06.04.2020 09:00:00 0,1 -3,5 16 9 22 12 SSE 1025,0 10 0,0
06.04.2020 08:00:00 -0,1 -1,8 16 9 22 12 SSE 1025,2 10 0,0
06.04.2020 07:00:00 -0,6 -1,6 13 7 22 12 SSE 1025,5 10 0,0
06.04.2020 06:00:00 -1,3 -2,9 13 7 22 12 S 1025,3 10 0,0
06.04.2020 05:00:00 -2,7 -3,4 11 6 14 8 SSE 1025,3 10 0,0
06.04.2020 04:00:00 -4,0 -5,7 5 3 7 4 SE 1025,6 10 0,0
06.04.2020 03:00:00 -4,1 -5,9 5 3 7 4 SSE 1025,4 10 0,0
06.04.2020 02:00:00 -5,2 -8,4 0 0 4 2 N 1025,6 10 0,0
06.04.2020 01:00:00 -5,0 -8,4 0 0 4 2 N 1026,0 10 0,0
06.04.2020 00:00:00 -4,2 -9,2 2 1 4 2 S 1025,7 10 0,0
05.04.2020 23:00:00 -4,9 -8,6 4 2 7 4 SE 1025,4 10 0,0
05.04.2020 22:00:00 -4,9 -10,3 0 0 7 4 N 1025,8 10 0,0
05.04.2020 21:00:00 -4,2 -10,8 2 1 4 2 ESE 1025,9 10 0,0
05.04.2020 20:00:00 -2,8 -10,6 0 0 11 6 N 1025,6 10 0,0
05.04.2020 19:00:00 0,7 -13,7 8 4 18 10 O 1025,3 10 0,0
05.04.2020 18:00:00 0,9 -13,2 18 10 25 14 NO 1025,3 10 0,0
05.04.2020 17:00:00 1,3 -14,0 18 10 32 18 ONO 1025,1 10 0,0
05.04.2020 16:00:00 1,5 -14,6 22 12 36 19 ONO 1024,9 10 0,0
05.04.2020 15:00:00 1,1 -14,6 26 14 36 19 NO 1024,8 10 0,0
05.04.2020 14:00:00 0,7 -12,3 26 14 36 19 NO 1024,5 10 0,0
05.04.2020 13:00:00 0,5 -13,2 21 11 36 19 NO 1024,2 10 0,0
05.04.2020 12:00:00 -0,3 -13,2 28 15 36 19 NO 1023,7 10 0,0
05.04.2020 11:00:00 -1,2 -12,2 22 12 36 19 NO 1023,0 10 0,0
05.04.2020 10:00:00 -1,9 -12,0 15 8 29 16 ONO 1022,5 10 0,0
05.04.2020 09:00:00 -3,4 -12,6 15 8 22 12 ONO 1022,1 10 0,0
05.04.2020 08:00:00 -5,0 -12,6 15 8 22 12 ONO 1021,2 10 0,0
05.04.2020 07:00:00 -6,4 -12,5 13 7 18 10 NO 1020,5 10 0,0
05.04.2020 06:00:00 -6,8 -12,5 11 6 22 12 NO 1019,7 10 0,0
05.04.2020 05:00:00 -7,6 -12,5 16 9 25 14 NO 1018,7 10 0,0
05.04.2020 04:00:00 -5,7 -11,8 18 10 25 14 ONO 1017,6 10 0,0
05.04.2020 03:00:00 -4,9 -11,9 18 10 29 16 ONO 1016,7 10 0,0
05.04.2020 02:00:00 -4,1 -10,9 24 13 32 18 NO 1015,3 10 0,0
05.04.2020 01:00:00 -3,6 -10,7 24 13 29 16 ONO 1014,5 10 0,0
05.04.2020 00:00:00 -3,2 -11,0 16 9 25 14 ONO 1013,2 10 0,0
04.04.2020 23:00:00 -2,5 -11,5 16 9 22 12 O 1011,9 10 0,0
04.04.2020 22:00:00 -1,7 -11,8 16 9 29 16 O 1011,1 10 0,0
04.04.2020 21:00:00 -1,0 -12,6 18 10 29 16 ONO 1010,2 10 0,0
04.04.2020 20:00:00 -0,3 -12,9 16 9 25 14 ONO 1009,4 10 0,0
04.04.2020 19:00:00 1,1 -13,4 16 9 29 16 ONO 1008,4 10 0,0
04.04.2020 18:00:00 1,5 -13,0 24 13 47 25 ONO 1007,6 10 0,0
04.04.2020 17:00:00 2,1 -12,5 26 14 40 21 ONO 1006,7 10 0,0
04.04.2020 16:00:00 2,3 -12,0 18 10 32 18 ONO 1005,8 10 0,0
04.04.2020 15:00:00 2,2 -11,0 26 14 43 23 NO 1005,2 10 0,0
04.04.2020 14:00:00 1,7 -10,8 18 10 32 18 NO 1004,4 10 0,0
04.04.2020 13:00:00 0,6 -9,7 8 4 22 12 NNO 1003,6 10 0,0
04.04.2020 12:00:00 -0,7 -8,6 15 8 29 16 NO 1002,5 10 0,0
04.04.2020 11:00:00 -1,6 -9,0 13 7 29 16 NO 1001,5 10 0,0
04.04.2020 10:00:00 -2,7 -9,2 18 10 25 14 NO 1000,2 10 0,0
04.04.2020 09:00:00 -4,1 -9,7 11 6 18 10 NO 999,4 10 0,0
04.04.2020 08:00:00 -7,1 -11,5 2 1 7 4 - 998,5 10 0,0
04.04.2020 07:00:00 -10,6 -12,8 0 0 7 4 N 997,6 10 0,0
04.04.2020 06:00:00 -11,0 -13,2 2 1 4 2 - 996,9 10 0,0
04.04.2020 05:00:00 -10,6 -13,1 0 0 7 4 N 996,2 10 0,0
04.04.2020 04:00:00 -10,2 -12,7 4 2 4 2 ONO 995,6 10 0,0
04.04.2020 03:00:00 -9,9 -12,7 4 2 4 2 O 994,9 10 0,0
04.04.2020 02:00:00 -9,6 -12,9 0 0 4 2 N 994,1 10 0,0
04.04.2020 01:00:00 -8,9 -12,5 2 1 4 2 NO 993,4 10 0,0
04.04.2020 00:00:00 -8,6 -12,6 0 0 4 2 N 992,7 10 0,0
03.04.2020 23:00:00 -7,8 -11,3 0 0 4 2 N 991,7 10 0,0
03.04.2020 22:00:00 -6,5 -11,1 0 0 4 2 N 991,3 10 0,0
03.04.2020 21:00:00 -5,0 -10,8 0 0 7 4 N 990,5 10 0,0
03.04.2020 20:00:00 -2,2 -12,0 5 3 18 10 NNO 989,3 10 0,0
03.04.2020 19:00:00 -1,7 -10,5 16 9 40 21 NO 988,3 10 0,0
03.04.2020 18:00:00 0,1 -11,0 26 14 36 19 NO 987,2 10 0,0
03.04.2020 17:00:00 0,3 -8,2 21 11 29 16 NO 986,1 10 0,0
03.04.2020 16:00:00 0,0 -7,7 26 14 32 18 NO 985,0 10 0,0
03.04.2020 15:00:00 0,1 -8,3 18 10 32 18 NNO 983,8 10 0,0
03.04.2020 14:00:00 -0,1 -8,5 18 10 32 18 N 982,7 10 0,0
03.04.2020 13:00:00 -0,7 -7,9 22 12 36 19 N 981,7 10 0,0
03.04.2020 12:00:00 -1,6 -7,5 21 11 43 23 N 980,5 10 0,0
03.04.2020 11:00:00 -2,5 -7,4 28 15 40 21 N 979,6 10 0,0
03.04.2020 10:00:00 -2,8 -7,3 26 14 40 21 N 978,7 10 0,0
03.04.2020 09:00:00 -3,2 -7,2 24 13 36 19 N 977,9 10 0,0
03.04.2020 08:00:00 -3,9 -7,0 21 11 29 16 N 977,0 10 0,0
03.04.2020 07:00:00 -4,3 -7,2 16 9 29 16 N 976,3 10 0,0
03.04.2020 06:00:00 -4,4 -7,0 13 7 25 14 N 976,1 10 0,0
03.04.2020 05:00:00 -4,4 -7,0 13 7 25 14 N 975,7 10 0,0
03.04.2020 04:00:00 -4,2 -6,7 13 7 25 14 N 975,5 10 0,0
03.04.2020 03:00:00 -4,2 -6,3 13 7 22 12 NNE 975,5 10 0,0
03.04.2020 02:00:00 -4,1 -5,9 11 6 22 12 NNE 975,7 10 0,0
03.04.2020 01:00:00 -4,0 -5,7 13 7 22 12 NE 975,8 10 0,0
03.04.2020 00:00:00 -3,7 -5,2 13 7 29 16 NE 975,8 10 0,0
02.04.2020 23:00:00 -3,0 -4,4 13 7 29 16 ENE 976,0 10 0,0
02.04.2020 22:00:00 -3,1 -4,5 13 7 25 14 E 976,3 10 0,0
02.04.2020 21:00:00 -3,1 -4,7 13 7 25 14 E 976,9 10 0,0
02.04.2020 20:00:00 -3,1 -4,7 11 6 29 16 E 977,8 10 0,0
02.04.2020 19:00:00 -3,2 -4,8 13 7 25 14 E 978,6 10 0,0
02.04.2020 18:00:00 -3,2 -4,9 15 8 25 14 E 979,5 10 0,0
02.04.2020 17:00:00 -3,3 -5,2 15 8 25 14 E 979,9 10 0,0
02.04.2020 16:00:00 -3,3 -5,0 16 9 25 14 E 981,1 5 0,5
02.04.2020 15:00:00 -3,0 -5,3 16 9 29 16 ESE 981,8 4,0 0,2
02.04.2020 14:00:00 -2,9 -5,2 16 9 25 14 SE 982,5 10 0,1
02.04.2020 13:00:00 -2,7 -4,7 16 9 25 14 ESE 983,2 2,5 0,3
02.04.2020 12:00:00 -2,7 -5,3 13 7 25 14 ESE 983,9 6 0,2
02.04.2020 11:00:00 -2,9 -4,3 4 2 22 12 - 984,5 3,0 0,3
02.04.2020 10:00:00 -3,2 -4,5 11 6 22 12 E 985,1 3,0 0,5
02.04.2020 09:00:00 -3,7 -5,9 9 5 18 10 E 986,2 6 0,0
02.04.2020 08:00:00 -4,2 -7,1 4 2 11 6 - 987,2 10 0,0
02.04.2020 07:00:00 -5,1 -7,8 4 2 11 6 - 987,8 10 0,0
02.04.2020 06:00:00 -5,7 -9,3 4 2 11 6 - 988,8 10 0,0
02.04.2020 05:00:00 -6,1 -9,6 2 1 11 6 - 989,5 10 0,0
02.04.2020 04:00:00 -7,1 -10,1 2 1 7 4 - 990,3 10 0,0
02.04.2020 03:00:00 -8,0 -10,4 5 3 7 4 NNE 991,1 10 0,0
02.04.2020 02:00:00 -8,6 -11,1 4 2 7 4 - 992,0 10 0,0
02.04.2020 01:00:00 -8,0 -11,2 2 1 4 2 NO 992,8 10 0,0
02.04.2020 00:00:00 -7,2 -11,0 2 1 7 4 NO 993,2 10 0,0
01.04.2020 23:00:00 -6,2 -10,2 5 3 7 4 NO 993,8 10 0,0

tt = Temperatura
td = dewpoint
ff = velocità del vento
fx = gusts
dd = direzione del vento
ppp = reduced air pressure
vv = visibility
rr = precipitazioni

Stazioni seguenti

WeatherPro
AMSI
MeteoEarth